SCP
0 0 0 0 0 0 0 0 0 0 0 0 0 0 0 0 0 0 0 0 0 0 0 0 0 0 0 0 0 0 0 0 0 0 0 0 0 0
0 0 0 0 0 0 0 0 0 0 0 0 0 0 0 0 0 0 0 0 0 0 0 0 0 0 0 0 0 0 0 0 0 0 0 0 0 0
0 0 0 0 0 0 0 0 0 0 0 0 0 0 0 0 0 0 0 0 0 0 0 0 0 0 0 0 0 0 0 0 0 0 0 0 0 0
0 0 0 0 0 0 0 0 0 0 0 0 0 0 0 0 0 0 0 0 0 0 0 0 0 0 0 0 0 0 0 0 0 0 0 0 0 0
0 0 0 0 0 0 0 0 0 0 0 0 0 0 0 0 0 0 0 0 0 0 0 0 0 0 0 0 0 0 0 0 0 0 0 0 0 0
0 0 0 0 0 0 0 0 0 0 0 0 0 0 0 0 0 0 0 0 0 0 0 0 0 0 0 0 0 0 0 0 0 0 0 0 0 0
0 0 0 0 0 0 0 0 0 0 0 0 0 0 0 0 0 0 0 0 0 0 0 0 0 0 0 0 0 0 0 0 0 0 0 0 0 0
0 0 0 0 0 0 0 0 0 0 0 0 0 0 0 0 0 0 0 0 0 0 0 0 0 0 0 0 0 0 0 0 0 0 0 0 0 0
0 0 0 0 0 0 0 0 0 0 0 0 0 0 0 0 0 0 0 0 0 0 0 0 0 0 0 0 0 0 0 0 0 0 0 0 0 0
0 0 0 0 0 0 0 0 0 0 0 0 0 0 0 0 0 0 0 0 0 0 0 0 0 0 0 0 0 0 0 0 0 0 0 0 0 0
0 0 0 0 0 0 0 0 0 0 0 0 0 0 0 0 0 0 0 0 0 0 0 0 0 0 0 0 0 0 0 0 0 0 0 0 0 0
0 0 0 0 0 0 0 0 0 0 0 0 0 0 0 0 0 0 0 0 0 0 0 0 0 0 0 0 0 0 0 0 0 0 0 0 0 0
0 0 0 0 0 0 0 0 0 0 0 0 0 0 0 0 0 0 0 0 0 0 0 0 0 0 0 0 0 0 0 0 0 0 0 0 0 0
0 0 0 0 0 0 0 0 0 0 0 0 0 0 0 0 0 0 0 0 0 0 0 0 0 0 0 0 0 0 0 0 0 0 0 0 0 0
0 0 0 0 0 0 0 0 0 0 0 0 0 0 0 0 0 0 0 0 0 0 0 0 0 0 0 0 0 0 0 0 0 0 0 0 0 0
0 0 0 0 0 0 0 0 0 0 0 0 0 0 0 0 0 0 0 0 0 0 0 0 0 0 0 0 0 0 0 0 0 0 0 0 0 0
0 0 0 0 0 0 0 0 0 0 0 0 0 0 0 0 0 0 0 0 0 0 0 0 0 0 0 0 0 0 0 0 0 0 0 0 0 0
0 0 0 0 0 0 0 0 0 0 0 0 0 0 0 0 0 0 0 0 0 0 0 0 0 0 0 0 0 0 0 0 0 0 0 0 0 0
0 0 0 0 0 0 0 0 0 0 0 0 0 0 0 0 0 0 0 0 0 0 0 0 0 0 0 0 0 0 0 0 0 0 0 0 0 0
0 0 0 0 0 0 0 0 0 0 0 0 0 0 0 0 0 0 0 0 0 0 0 0 0 0 0 0 0 0 0 0 0 0 0 0 0 0
0 0 0 0 0 0 0 0 0 0 0 0 0 0 0 0 0 0 0 0 0 0 0 0 0 0 0 0 0 0 0 0 0 0 0 0 0 0
0 0 0 0 0 0 0 0 0 0 0 0 0 0 0 0 0 0 0 0 0 0 0 0 0 0 0 0 0 0 0 0 0 0 0 0 0 0
0 0 0 0 0 0 0 0 0 0 0 0 0 0 0 0 0 0 0 0 0 0 0 0 0 0 0 0 0 0 0 0 0 0 0 0 0 0
Wind_Speed
1 1 1 0 0 1 1 0 1 1 1 0 0 1 2 3 5 4 4 7 7 6 6 5 3 3 2 2 3 3 3 3 4 4 4 4 4 5
1 1 0 0 1 1 1 0 0 1 1 0 0 1 1 2 4 3 4 8 7 8 7 6 4 3 3 2 3 3 3 3 4 4 4 4 4 4
1 2 2 1 0 0 0 0 0 0 1 0 0 1 1 2 2 2 3 4 4 8 8 7 6 4 3 3 3 3 3 3 4 4 4 4 4 3
1 1 1 1 1 0 0 0 0 1 1 1 0 0 1 1 1 1 1 3 3 7 9 8 7 6 5 4 3 3 3 3 3 3 4 4 4 4
1 1 1 1 1 0 1 0 0 0 1 1 1 1 0 0 0 1 1 0 2 5 7 8 8 7 6 5 4 4 3 3 3 3 3 3 3 3
1 1 1 1 0 0 0 0 0 0 0 1 1 1 0 0 1 0 1 1 1 1 2 5 7 8 7 6 6 5 4 4 4 4 3 3 3 3
1 1 2 3 3 1 1 1 0 0 0 1 1 0 0 0 0 1 1 1 1 1 1 2 3 4 5 6 6 6 6 6 5 5 4 4 3 3
1 1 1 2 3 3 2 2 1 1 0 0 0 0 1 0 0 1 1 1 1 1 1 2 2 3 3 3 6 7 8 7 6 6 5 5 5 5
1 1 1 2 2 1 1 1 1 1 1 1 0 1 0 0 0 1 1 1 2 2 1 2 1 2 2 4 8 9 9 8 8 7 7 6 6 6
1 1 1 2 2 2 1 0 0 0 1 2 1 1 0 0 1 1 2 2 2 2 1 2 1 2 2 2 7 9 9 9 9 9 8 7 7 7
0 1 1 2 3 3 1 1 1 1 0 1 1 1 1 0 1 1 1 1 2 2 1 1 2 1 1 1 3 7 9 10 10 9 9 8 8 6
0 2 4 3 2 1 1 1 1 1 1 1 1 2 3 3 4 2 2 2 2 2 1 1 1 1 1 1 1 3 4 7 9 10 10 10 8 5
1 0 1 2 1 1 1 1 2 2 2 2 2 2 2 2 3 3 3 2 2 2 1 0 1 1 1 2 1 2 2 2 3 5 8 9 9 6
1 1 0 2 2 3 3 3 3 3 3 3 2 1 1 1 1 2 2 3 2 3 2 1 2 2 2 2 2 1 2 2 2 2 3 5 7 8
2 2 2 3 3 3 5 5 3 2 2 2 2 1 1 2 2 2 2 2 3 3 3 2 2 2 2 3 2 2 2 2 2 1 1 1 2 2
2 2 3 4 4 3 3 3 3 3 2 2 2 2 1 1 2 2 2 2 2 2 3 2 2 2 3 3 2 3 2 2 2 2 1 1 1 1
2 2 2 2 2 2 2 2 3 3 3 2 2 2 2 2 1 1 1 1 2 2 2 2 2 2 3 3 3 3 2 2 2 1 1 2 2 2
1 2 2 2 3 2 2 2 3 2 2 2 2 2 2 2 1 1 1 1 2 2 2 2 1 2 2 2 3 3 2 2 2 2 2 2 2 2
2 3 3 2 2 2 2 2 2 2 2 2 2 2 2 2 1 1 1 1 2 2 2 2 2 2 3 4 3 3 3 3 2 2 2 2 2 2
3 3 3 2 2 2 2 2 1 1 1 2 2 2 2 2 2 2 2 2 2 2 3 2 2 2 3 4 3 3 4 3 2 2 3 2 2 2
3 3 2 2 2 2 2 2 2 1 1 2 2 2 2 2 2 2 2 2 3 3 3 3 3 4 3 2 3 3 2 4 4 3 3 2 3 2
2 2 2 2 2 2 2 2 2 1 1 2 2 2 2 2 3 3 2 2 3 3 3 2 2 2 2 3 4 4 3 2 4 5 5 5 3 3
3 2 2 2 2 2 2 2 2 1 1 1 2 2 2 2 2 2 2 3 3 3 3 2 2 2 3 3 3 3 4 3 2 2 3 5 7 7
Wind_Direction
189 174 168 220 85 45 33 82 183 197 239 250 100 153 132 130 148 164 156 170 175 179 178 182 187 194 211 222 224 237 249 259 253 245 242 247 250 252
171 166 139 75 76 74 68 33 338 206 207 253 90 130 132 134 158 168 161 166 182 183 181 186 191 195 203 225 238 243 242 246 243 241 236 241 245 248
166 152 140 129 63 63 80 92 74 126 168 283 27 109 129 130 160 195 160 169 180 184 183 187 191 195 204 218 228 227 225 231 237 237 240 244 249 252
155 133 138 146 134 349 337 312 196 188 161 165 162 56 79 154 179 222 186 182 172 177 182 188 192 197 199 203 215 224 229 235 237 237 237 238 240 244
112 140 156 144 139 193 237 239 272 222 157 169 190 187 143 35 75 286 289 255 198 176 182 190 193 195 196 200 210 214 222 232 232 233 239 242 243 246
67 62 53 56 73 166 209 161 172 207 191 183 172 170 161 194 137 212 301 280 273 199 188 185 193 198 202 204 210 210 212 220 223 224 223 229 236 239
73 85 83 83 71 65 60 35 359 217 203 174 175 129 217 211 203 230 248 250 244 213 201 194 184 199 209 217 218 214 211 214 217 216 216 218 221 229
76 89 136 124 108 93 70 56 53 220 203 139 174 198 248 248 228 263 276 282 271 226 218 227 186 195 195 194 207 206 207 211 216 217 216 218 222 230
57 12 5 87 94 87 90 83 44 304 215 179 227 275 256 255 225 272 279 266 261 260 241 247 208 210 204 199 194 199 203 209 214 219 222 226 232 240
79 80 71 68 38 36 31 67 49 36 206 190 194 268 326 40 238 241 252 267 265 266 212 256 245 235 244 182 195 201 204 207 213 219 224 230 237 245
210 69 71 83 54 27 358 3 11 349 45 103 174 187 159 214 332 326 295 286 284 270 214 234 251 251 231 215 208 208 209 212 217 221 226 232 239 249
129 108 85 90 85 53 333 305 292 291 308 298 275 236 224 224 222 228 256 264 273 272 260 256 273 278 270 231 193 198 219 227 229 230 231 235 237 242
304 263 127 139 148 186 238 261 266 285 273 254 247 231 223 211 205 211 222 239 263 270 275 249 279 281 261 271 258 225 212 219 220 233 229 234 234 228
317 352 331 198 221 237 235 252 276 284 265 257 247 233 226 222 221 219 218 226 237 251 274 277 271 271 282 283 277 262 254 245 231 233 216 221 229 233
324 333 294 256 249 237 238 247 253 253 260 266 256 251 222 213 218 223 229 238 248 261 263 248 249 266 265 266 274 277 276 264 247 249 229 205 214 220
295 283 264 253 250 245 235 230 231 239 249 265 271 262 238 232 225 212 228 236 246 261 254 244 245 252 267 271 267 269 259 252 254 248 237 243 241 238
295 267 253 240 226 229 232 222 222 230 237 250 261 270 262 252 241 226 233 250 252 257 263 252 241 228 240 259 270 270 266 262 253 250 247 258 256 247
246 261 263 255 251 241 234 227 221 228 237 244 258 266 267 262 246 234 241 259 265 266 267 263 253 267 273 269 252 261 267 265 267 261 252 255 263 256
230 249 255 260 264 265 253 247 240 221 216 232 251 269 280 283 276 259 240 248 266 269 262 255 247 244 266 274 267 235 257 268 269 270 257 251 257 252
240 254 257 257 260 266 262 256 248 233 230 237 249 263 276 287 283 266 253 263 269 272 270 258 251 248 249 264 275 273 244 251 251 261 267 259 257 252
252 259 261 265 271 271 271 259 232 211 219 231 244 258 265 275 279 271 261 260 268 274 274 269 257 250 249 252 265 273 259 233 240 241 258 265 266 259
262 269 270 272 274 276 274 269 257 233 227 236 246 252 252 262 274 271 260 259 258 267 274 269 255 249 251 256 261 258 261 255 246 250 255 246 244 250
270 281 279 275 273 268 279 290 281 266 256 260 263 262 259 260 272 274 268 265 266 270 272 270 270 268 266 258 263 265 262 257 245 249 256 251 244 247